User: anonymous   Login
Location: Bretagne
(43.8474°N, 0.4650°W)
Time: 23:27:40
(UTC+00:00)
Language:

Cosmos 1452 Rocket - Orbit

View from above orbital plane
View from above orbital plane
View from above satellite
View from above satellite

Ground track
Ground track

The orbit is defined by the following mean orbital elements,

1 13992U          26064.70922947 +.00000000 +00000-0 +11486-3 0 00008
2 13992  74.0508 284.4043 0005471 204.2976 155.7921 14.37551106    05
Epoch (UTC): 05 March 2026 17:01:17
Eccentricity: 0.0005471
inclination: 74.0508°
perigee height: 763 km
apogee height: 771 km
right ascension of ascending node: 284.4043°
argument of perigee: 204.2976°
revolutions per day: 14.37551106
mean anomaly at epoch: 155.7921°

The dashed part of the orbit path shows where the satellite is in the earth's shadow,  

DLR